If you wish to contribute or participate in the discussions about articles you are invited to join SKYbrary as a registered user

 Actions

Deelen Air Base

From SKYbrary Wiki

EHDL
Airport
ICAO: EHDL – IATA: QAR
Summary
Name Deelen Air Base
Region Europe
Territory Netherlands NL.gif
Location Deelen, Gelderland
Serving Deelen
Elevation 48.158 m
158 ft
158 ft48.158 m
Type medium airport
Coordinates 52° 3' 38.00" N, 5° 52' 23.00" E
Runways
Designator Length Width Surface ROPS
2/20 2950 m9,678.478 ft
50 m164.042 ft
PEM /


METAR
Observation EHDL 191225Z AUTO 32007KT 300V030 9999 FEW033 SCT037 BKN048 07/04 Q1039 BLU
Station Deelen
Date/Time 19 January 2020 12:25:00
Wind direction 320°
Wind speed 07 kts
Lowest cloud amount few clouds
Temperature 7°C
Dew point 4°C
Humidity 81%
QNH 1039 hPa
Weather condition n/a

Deelen Air Base is a military air base in the Netherlands in the province of Gelderland. Though once an active air base, it is now mostly used as a helicopter training site.

Climatology

Temperate Marine climate/Oceanic climate (Köppen climate classification Cfb). Moderately cool summer and comparatively warm winter with a temperature range of only 14°C57.2 °F
287.15 K
516.87 °R
. Prevailing south-westerly winds from the Atlantic Ocean.

Maps

Terrain

Loading map...

Airport Layout

Loading map...


Accidents & Serious Incidents at or in vicinity of EHDL

None on SKYbrary